Year,Month,Day,Hour,Minute,Value (Times are PST for insolation in W/m^2)
2016,10,06,00,00,0.00
2016,10,06,00,01,0.00
2016,10,06,00,02,0.00
2016,10,06,00,03,0.00
2016,10,06,00,04,0.00
2016,10,06,00,05,0.00
2016,10,06,00,06,0.00
2016,10,06,00,07,0.00
2016,10,06,00,08,0.00
2016,10,06,00,09,0.00
2016,10,06,00,10,0.00
2016,10,06,00,11,0.00
2016,10,06,00,12,0.00
2016,10,06,00,13,0.00
2016,10,06,00,14,0.00
2016,10,06,00,15,0.00
2016,10,06,00,16,0.00
2016,10,06,00,17,0.00
2016,10,06,00,18,0.00
2016,10,06,00,19,0.00
2016,10,06,00,20,0.00
2016,10,06,00,21,0.00
2016,10,06,00,22,0.00
2016,10,06,00,23,0.00
2016,10,06,00,24,0.00
2016,10,06,00,25,0.00
2016,10,06,00,26,0.00
2016,10,06,00,27,0.00
2016,10,06,00,28,0.00
2016,10,06,00,29,0.00
2016,10,06,00,30,0.00
2016,10,06,00,31,0.00
2016,10,06,00,32,0.00
2016,10,06,00,33,0.00
2016,10,06,00,34,0.00
2016,10,06,00,35,0.00
2016,10,06,00,36,0.00
2016,10,06,00,37,0.00
2016,10,06,00,38,0.00
2016,10,06,00,39,0.00
2016,10,06,00,40,0.00
2016,10,06,00,41,0.00
2016,10,06,00,42,0.00
2016,10,06,00,43,0.00
2016,10,06,00,44,0.00
2016,10,06,00,45,0.00
2016,10,06,00,46,0.00
2016,10,06,00,47,0.00
2016,10,06,00,48,0.00
2016,10,06,00,49,0.00
2016,10,06,00,50,0.00
2016,10,06,00,51,0.00
2016,10,06,00,52,0.00
2016,10,06,00,53,0.00
2016,10,06,00,54,0.00
2016,10,06,00,55,0.00
2016,10,06,00,56,0.00
2016,10,06,00,57,0.00
2016,10,06,00,58,0.00
2016,10,06,00,59,0.00
2016,10,06,01,00,0.00
2016,10,06,01,01,0.00
2016,10,06,01,02,0.00
2016,10,06,01,03,0.00
2016,10,06,01,04,0.00
2016,10,06,01,05,0.00
2016,10,06,01,06,0.00
2016,10,06,01,07,0.00
2016,10,06,01,08,0.00
2016,10,06,01,09,0.00
2016,10,06,01,10,0.00
2016,10,06,01,11,0.00
2016,10,06,01,12,0.00
2016,10,06,01,13,0.00
2016,10,06,01,14,0.00
2016,10,06,01,15,0.00
2016,10,06,01,16,0.00
2016,10,06,01,17,0.00
2016,10,06,01,18,0.00
2016,10,06,01,19,0.00
2016,10,06,01,20,0.00
2016,10,06,01,21,0.00
2016,10,06,01,22,0.00
2016,10,06,01,23,0.00
2016,10,06,01,24,0.00
2016,10,06,01,25,0.00
2016,10,06,01,26,0.00
2016,10,06,01,27,0.00
2016,10,06,01,28,0.00
2016,10,06,01,29,0.00
2016,10,06,01,30,0.00
2016,10,06,01,31,0.00
2016,10,06,01,32,0.00
2016,10,06,01,33,0.00
2016,10,06,01,34,0.00
2016,10,06,01,35,0.00
2016,10,06,01,36,0.00
2016,10,06,01,37,0.00
2016,10,06,01,38,0.00
2016,10,06,01,39,0.00
2016,10,06,01,40,0.00
2016,10,06,01,41,0.00
2016,10,06,01,42,0.00
2016,10,06,01,43,0.00
2016,10,06,01,44,0.00
2016,10,06,01,45,0.00
2016,10,06,01,46,0.00
2016,10,06,01,47,0.00
2016,10,06,01,48,0.00
2016,10,06,01,49,0.00
2016,10,06,01,50,0.00
2016,10,06,01,51,0.00
2016,10,06,01,52,0.00
2016,10,06,01,53,0.00
2016,10,06,01,54,0.00
2016,10,06,01,55,0.00
2016,10,06,01,56,0.00
2016,10,06,01,57,0.00
2016,10,06,01,58,0.00
2016,10,06,01,59,0.00
2016,10,06,02,00,0.00
2016,10,06,02,01,0.00
2016,10,06,02,02,0.00
2016,10,06,02,03,0.00
2016,10,06,02,04,0.00
2016,10,06,02,05,0.00
2016,10,06,02,06,0.00
2016,10,06,02,07,0.00
2016,10,06,02,08,0.00
2016,10,06,02,09,0.00
2016,10,06,02,10,0.00
2016,10,06,02,11,0.00
2016,10,06,02,12,0.00
2016,10,06,02,13,0.00
2016,10,06,02,14,0.00
2016,10,06,02,15,0.00
2016,10,06,02,16,0.00
2016,10,06,02,17,0.00
2016,10,06,02,18,0.00
2016,10,06,02,19,0.00
2016,10,06,02,20,0.00
2016,10,06,02,21,0.00
2016,10,06,02,22,0.00
2016,10,06,02,23,0.00
2016,10,06,02,24,0.00
2016,10,06,02,25,0.00
2016,10,06,02,26,0.00
2016,10,06,02,27,0.00
2016,10,06,02,28,0.00
2016,10,06,02,29,0.00
2016,10,06,02,30,0.00
2016,10,06,02,31,0.00
2016,10,06,02,32,0.00
2016,10,06,02,33,0.00
2016,10,06,02,34,0.00
2016,10,06,02,35,0.00
2016,10,06,02,36,0.00
2016,10,06,02,37,0.00
2016,10,06,02,38,0.00
2016,10,06,02,39,0.00
2016,10,06,02,40,0.00
2016,10,06,02,41,0.00
2016,10,06,02,42,0.00
2016,10,06,02,43,0.00
2016,10,06,02,44,0.00
2016,10,06,02,45,0.00
2016,10,06,02,46,0.00
2016,10,06,02,47,0.00
2016,10,06,02,48,0.00
2016,10,06,02,49,0.00
2016,10,06,02,50,0.00
2016,10,06,02,51,0.00
2016,10,06,02,52,0.00
2016,10,06,02,53,0.00
2016,10,06,02,54,0.00
2016,10,06,02,55,0.00
2016,10,06,02,56,0.00
2016,10,06,02,57,0.00
2016,10,06,02,58,0.00
2016,10,06,02,59,0.00
2016,10,06,03,00,0.00
2016,10,06,03,01,0.00
2016,10,06,03,02,0.00
2016,10,06,03,03,0.00
2016,10,06,03,04,0.00
2016,10,06,03,05,0.00
2016,10,06,03,06,0.00
2016,10,06,03,07,0.00
2016,10,06,03,08,0.00
2016,10,06,03,09,0.00
2016,10,06,03,10,0.00
2016,10,06,03,11,0.00
2016,10,06,03,12,0.00
2016,10,06,03,13,0.00
2016,10,06,03,14,0.00
2016,10,06,03,15,0.00
2016,10,06,03,16,0.00
2016,10,06,03,17,0.00
2016,10,06,03,18,0.00
2016,10,06,03,19,0.00
2016,10,06,03,20,0.00
2016,10,06,03,21,0.00
2016,10,06,03,22,0.00
2016,10,06,03,23,0.00
2016,10,06,03,24,0.00
2016,10,06,03,25,0.00
2016,10,06,03,26,0.00
2016,10,06,03,27,0.00
2016,10,06,03,28,0.00
2016,10,06,03,29,0.00
2016,10,06,03,30,0.00
2016,10,06,03,31,0.00
2016,10,06,03,32,0.00
2016,10,06,03,33,0.00
2016,10,06,03,34,0.00
2016,10,06,03,35,0.00
2016,10,06,03,36,0.00
2016,10,06,03,37,0.00
2016,10,06,03,38,0.00
2016,10,06,03,39,0.00
2016,10,06,03,40,0.00
2016,10,06,03,41,0.00
2016,10,06,03,42,0.00
2016,10,06,03,43,0.00
2016,10,06,03,44,0.00
2016,10,06,03,45,0.00
2016,10,06,03,46,0.00
2016,10,06,03,47,0.00
2016,10,06,03,48,0.00
2016,10,06,03,49,0.00
2016,10,06,03,50,0.00
2016,10,06,03,51,0.00
2016,10,06,03,52,0.00
2016,10,06,03,53,0.00
2016,10,06,03,54,0.00
2016,10,06,03,55,0.00
2016,10,06,03,56,0.00
2016,10,06,03,57,0.00
2016,10,06,03,58,0.00
2016,10,06,03,59,0.00
2016,10,06,04,00,0.00
2016,10,06,04,01,0.00
2016,10,06,04,02,0.00
2016,10,06,04,03,0.00
2016,10,06,04,04,0.00
2016,10,06,04,05,0.00
2016,10,06,04,06,0.00
2016,10,06,04,07,0.00
2016,10,06,04,08,0.00
2016,10,06,04,09,0.00
2016,10,06,04,10,0.00
2016,10,06,04,11,0.00
2016,10,06,04,12,0.00
2016,10,06,04,13,0.00
2016,10,06,04,14,0.00
2016,10,06,04,15,0.00
2016,10,06,04,16,0.00
2016,10,06,04,17,0.00
2016,10,06,04,18,0.00
2016,10,06,04,19,0.00
2016,10,06,04,20,0.00
2016,10,06,04,21,0.00
2016,10,06,04,22,0.00
2016,10,06,04,23,0.00
2016,10,06,04,24,0.00
2016,10,06,04,25,0.00
2016,10,06,04,26,0.00
2016,10,06,04,27,0.00
2016,10,06,04,28,0.00
2016,10,06,04,29,0.00
2016,10,06,04,30,0.00
2016,10,06,04,31,0.00
2016,10,06,04,32,0.00
2016,10,06,04,33,0.00
2016,10,06,04,34,0.00
2016,10,06,04,35,0.00
2016,10,06,04,36,0.00
2016,10,06,04,37,0.00
2016,10,06,04,38,0.00
2016,10,06,04,39,0.00
2016,10,06,04,40,0.00
2016,10,06,04,41,0.00
2016,10,06,04,42,0.00
2016,10,06,04,43,0.00
2016,10,06,04,44,0.00
2016,10,06,04,45,0.00
2016,10,06,04,46,0.00
2016,10,06,04,47,0.00
2016,10,06,04,48,0.00
2016,10,06,04,49,0.00
2016,10,06,04,50,0.00
2016,10,06,04,51,0.00
2016,10,06,04,52,0.00
2016,10,06,04,53,0.00
2016,10,06,04,54,0.00
2016,10,06,04,55,0.00
2016,10,06,04,56,0.00
2016,10,06,04,57,0.00
2016,10,06,04,58,0.00
2016,10,06,04,59,0.00
2016,10,06,05,00,0.00
2016,10,06,05,01,0.00
2016,10,06,05,02,0.00
2016,10,06,05,03,0.00
2016,10,06,05,04,0.00
2016,10,06,05,05,0.00
2016,10,06,05,06,0.00
2016,10,06,05,07,0.00
2016,10,06,05,08,0.00
2016,10,06,05,09,0.00
2016,10,06,05,10,0.00
2016,10,06,05,11,0.00
2016,10,06,05,12,0.00
2016,10,06,05,13,0.00
2016,10,06,05,14,0.00
2016,10,06,05,15,0.00
2016,10,06,05,16,0.00
2016,10,06,05,17,0.00
2016,10,06,05,18,0.00
2016,10,06,05,19,0.00
2016,10,06,05,20,0.00
2016,10,06,05,21,0.00
2016,10,06,05,22,0.00
2016,10,06,05,23,0.00
2016,10,06,05,24,0.00
2016,10,06,05,25,0.00
2016,10,06,05,26,0.00
2016,10,06,05,27,0.00
2016,10,06,05,28,0.00
2016,10,06,05,29,0.00
2016,10,06,05,30,0.00
2016,10,06,05,31,0.00
2016,10,06,05,32,0.00
2016,10,06,05,33,0.00
2016,10,06,05,34,0.00
2016,10,06,05,35,0.00
2016,10,06,05,36,0.00
2016,10,06,05,37,0.00
2016,10,06,05,38,0.00
2016,10,06,05,39,0.00
2016,10,06,05,40,0.00
2016,10,06,05,41,0.00
2016,10,06,05,42,0.00
2016,10,06,05,43,0.00
2016,10,06,05,44,0.00
2016,10,06,05,45,0.00
2016,10,06,05,46,0.00
2016,10,06,05,47,0.00
2016,10,06,05,48,0.00
2016,10,06,05,49,0.00
2016,10,06,05,50,0.00
2016,10,06,05,51,0.00
2016,10,06,05,52,0.00
2016,10,06,05,53,0.00
2016,10,06,05,54,0.00
2016,10,06,05,55,0.00
2016,10,06,05,56,0.00
2016,10,06,05,57,0.00
2016,10,06,05,58,0.00
2016,10,06,05,59,0.00
2016,10,06,06,00,0.00
2016,10,06,06,01,0.00
2016,10,06,06,02,0.00
2016,10,06,06,03,0.00
2016,10,06,06,04,0.00
2016,10,06,06,05,0.00
2016,10,06,06,06,0.00
2016,10,06,06,07,0.00
2016,10,06,06,08,0.00
2016,10,06,06,09,0.00
2016,10,06,06,10,0.00
2016,10,06,06,11,0.00
2016,10,06,06,12,0.00
2016,10,06,06,13,0.00
2016,10,06,06,14,0.00
2016,10,06,06,15,0.00
2016,10,06,06,16,0.00
2016,10,06,06,17,0.00
2016,10,06,06,18,0.00
2016,10,06,06,19,0.00
2016,10,06,06,20,0.00
2016,10,06,06,21,0.00
2016,10,06,06,22,0.00
2016,10,06,06,23,0.00
2016,10,06,06,24,0.00
2016,10,06,06,25,0.00
2016,10,06,06,26,0.00
2016,10,06,06,27,0.00
2016,10,06,06,28,0.00
2016,10,06,06,29,0.00
2016,10,06,06,30,0.00
2016,10,06,06,31,0.00
2016,10,06,06,32,0.00
2016,10,06,06,33,0.00
2016,10,06,06,34,0.00
2016,10,06,06,35,0.00
2016,10,06,06,36,0.00
2016,10,06,06,37,0.00
2016,10,06,06,38,0.00
2016,10,06,06,39,0.00
2016,10,06,06,40,0.00
2016,10,06,06,41,0.00
2016,10,06,06,42,0.00
2016,10,06,06,43,0.00
2016,10,06,06,44,0.00
2016,10,06,06,45,0.00
2016,10,06,06,46,0.00
2016,10,06,06,47,0.00
2016,10,06,06,48,0.00
2016,10,06,06,49,0.00
2016,10,06,06,50,0.00
2016,10,06,06,51,0.00
2016,10,06,06,52,0.00
2016,10,06,06,53,0.00
2016,10,06,06,54,0.00
2016,10,06,06,55,0.00
2016,10,06,06,56,0.00
2016,10,06,06,57,0.00
2016,10,06,06,58,0.00
2016,10,06,06,59,0.00
2016,10,06,07,00,0.00
2016,10,06,07,01,0.00
2016,10,06,07,02,0.00
2016,10,06,07,03,0.00
2016,10,06,07,04,0.00
2016,10,06,07,05,0.00
2016,10,06,07,06,0.00
2016,10,06,07,07,0.00
2016,10,06,07,08,0.00
2016,10,06,07,09,0.00
2016,10,06,07,10,0.00
2016,10,06,07,11,0.00
2016,10,06,07,12,0.00
2016,10,06,07,13,0.00
2016,10,06,07,14,0.00
2016,10,06,07,15,0.00
2016,10,06,07,16,0.00
2016,10,06,07,17,0.00
2016,10,06,07,18,0.00
2016,10,06,07,19,0.00
2016,10,06,07,20,0.00
2016,10,06,07,21,0.00
2016,10,06,07,22,0.00
2016,10,06,07,23,0.00
2016,10,06,07,24,0.00
2016,10,06,07,25,0.00
2016,10,06,07,26,0.00
2016,10,06,07,27,0.00
2016,10,06,07,28,0.00
2016,10,06,07,29,0.00
2016,10,06,07,30,0.00
2016,10,06,07,31,0.00
2016,10,06,07,32,0.00
2016,10,06,07,33,2.80
2016,10,06,07,34,5.00
2016,10,06,07,35,5.00
2016,10,06,07,36,5.00
2016,10,06,07,37,5.00
2016,10,06,07,38,5.00
2016,10,06,07,39,6.90
2016,10,06,07,40,7.10
2016,10,06,07,41,9.00
2016,10,06,07,42,9.00
2016,10,06,07,43,9.00
2016,10,06,07,44,9.60
2016,10,06,07,45,11.00
2016,10,06,07,46,11.40
2016,10,06,07,47,12.00
2016,10,06,07,48,12.00
2016,10,06,07,49,11.40
2016,10,06,07,50,11.00
2016,10,06,07,51,11.00
2016,10,06,07,52,11.80
2016,10,06,07,53,15.40
2016,10,06,07,54,17.80
2016,10,06,07,55,19.10
2016,10,06,07,56,21.00
2016,10,06,07,57,21.00
2016,10,06,07,58,21.00
2016,10,06,07,59,21.60
2016,10,06,08,00,24.00
2016,10,06,08,01,27.80
2016,10,06,08,02,30.90
2016,10,06,08,03,32.50
2016,10,06,08,04,35.60
2016,10,06,08,05,38.40
2016,10,06,08,06,39.70
2016,10,06,08,07,41.60
2016,10,06,08,08,42.00
2016,10,06,08,09,42.00
2016,10,06,08,10,41.90
2016,10,06,08,11,39.90
2016,10,06,08,12,38.20
2016,10,06,08,13,33.90
2016,10,06,08,14,29.40
2016,10,06,08,15,27.30
2016,10,06,08,16,26.90
2016,10,06,08,17,29.90
2016,10,06,08,18,32.60
2016,10,06,08,19,33.00
2016,10,06,08,20,33.00
2016,10,06,08,21,30.90
2016,10,06,08,22,28.40
2016,10,06,08,23,28.00
2016,10,06,08,24,29.80
2016,10,06,08,25,33.30
2016,10,06,08,26,39.30
2016,10,06,08,27,42.80
2016,10,06,08,28,46.20
2016,10,06,08,29,46.10
2016,10,06,08,30,42.10
2016,10,06,08,31,36.50
2016,10,06,08,32,33.00
2016,10,06,08,33,31.40
2016,10,06,08,34,30.00
2016,10,06,08,35,27.40
2016,10,06,08,36,25.20
2016,10,06,08,37,25.00
2016,10,06,08,38,25.00
2016,10,06,08,39,23.10
2016,10,06,08,40,23.00
2016,10,06,08,41,23.50
2016,10,06,08,42,26.30
2016,10,06,08,43,28.50
2016,10,06,08,44,30.00
2016,10,06,08,45,31.20
2016,10,06,08,46,34.80
2016,10,06,08,47,38.40
2016,10,06,08,48,42.20
2016,10,06,08,49,42.80
2016,10,06,08,50,40.60
2016,10,06,08,51,36.40
2016,10,06,08,52,32.60
2016,10,06,08,53,32.90
2016,10,06,08,54,33.00
2016,10,06,08,55,28.20
2016,10,06,08,56,27.80
2016,10,06,08,57,26.00
2016,10,06,08,58,26.00
2016,10,06,08,59,27.90
2016,10,06,09,00,32.30
2016,10,06,09,01,35.40
2016,10,06,09,02,40.50
2016,10,06,09,03,42.00
2016,10,06,09,04,40.10
2016,10,06,09,05,37.70
2016,10,06,09,06,38.50
2016,10,06,09,07,45.40
2016,10,06,09,08,53.30
2016,10,06,09,09,53.10
2016,10,06,09,10,48.90
2016,10,06,09,11,47.00
2016,10,06,09,12,48.30
2016,10,06,09,13,56.40
2016,10,06,09,14,65.00
2016,10,06,09,15,69.00
2016,10,06,09,16,65.80
2016,10,06,09,17,60.10
2016,10,06,09,18,57.00
2016,10,06,09,19,56.00
2016,10,06,09,20,58.80
2016,10,06,09,21,65.20
2016,10,06,09,22,65.30
2016,10,06,09,23,63.30
2016,10,06,09,24,60.20
2016,10,06,09,25,62.00
2016,10,06,09,26,61.40
2016,10,06,09,27,56.80
2016,10,06,09,28,60.50
2016,10,06,09,29,62.30
2016,10,06,09,30,63.00
2016,10,06,09,31,63.00
2016,10,06,09,32,61.50
2016,10,06,09,33,60.00
2016,10,06,09,34,64.60
2016,10,06,09,35,57.40
2016,10,06,09,36,46.70
2016,10,06,09,37,44.00
2016,10,06,09,38,48.20
2016,10,06,09,39,60.70
2016,10,06,09,40,66.80
2016,10,06,09,41,63.60
2016,10,06,09,42,67.60
2016,10,06,09,43,70.00
2016,10,06,09,44,69.70
2016,10,06,09,45,69.40
2016,10,06,09,46,73.20
2016,10,06,09,47,79.10
2016,10,06,09,48,79.90
2016,10,06,09,49,72.70
2016,10,06,09,50,65.10
2016,10,06,09,51,63.00
2016,10,06,09,52,59.00
2016,10,06,09,53,56.20
2016,10,06,09,54,61.70
2016,10,06,09,55,68.70
2016,10,06,09,56,68.10
2016,10,06,09,57,63.00
2016,10,06,09,58,63.00
2016,10,06,09,59,71.30
2016,10,06,10,00,88.00
2016,10,06,10,01,89.30
2016,10,06,10,02,94.20
2016,10,06,10,03,97.60
2016,10,06,10,04,92.80
2016,10,06,10,05,87.20
2016,10,06,10,06,88.90
2016,10,06,10,07,95.60
2016,10,06,10,08,97.00
2016,10,06,10,09,77.10
2016,10,06,10,10,69.10
2016,10,06,10,11,61.60
2016,10,06,10,12,48.40
2016,10,06,10,13,46.00
2016,10,06,10,14,46.30
2016,10,06,10,15,49.60
2016,10,06,10,16,58.00
2016,10,06,10,17,64.00
2016,10,06,10,18,62.20
2016,10,06,10,19,55.50
2016,10,06,10,20,50.20
2016,10,06,10,21,49.00
2016,10,06,10,22,52.40
2016,10,06,10,23,60.70
2016,10,06,10,24,73.40
2016,10,06,10,25,75.30
2016,10,06,10,26,61.30
2016,10,06,10,27,49.20
2016,10,06,10,28,39.80
2016,10,06,10,29,32.00
2016,10,06,10,30,31.80
2016,10,06,10,31,41.30
2016,10,06,10,32,50.00
2016,10,06,10,33,45.00
2016,10,06,10,34,36.80
2016,10,06,10,35,38.20
2016,10,06,10,36,46.80
2016,10,06,10,37,54.90
2016,10,06,10,38,63.70
2016,10,06,10,39,62.20
2016,10,06,10,40,49.90
2016,10,06,10,41,39.70
2016,10,06,10,42,37.40
2016,10,06,10,43,39.00
2016,10,06,10,44,47.80
2016,10,06,10,45,76.20
2016,10,06,10,46,90.00
2016,10,06,10,47,105.00
2016,10,06,10,48,116.20
2016,10,06,10,49,108.20
2016,10,06,10,50,91.70
2016,10,06,10,51,71.80
2016,10,06,10,52,63.60
2016,10,06,10,53,68.10
2016,10,06,10,54,69.00
2016,10,06,10,55,77.90
2016,10,06,10,56,95.20
2016,10,06,10,57,94.80
2016,10,06,10,58,86.00
2016,10,06,10,59,86.60
2016,10,06,11,00,84.40
2016,10,06,11,01,78.10
2016,10,06,11,02,87.50
2016,10,06,11,03,100.30
2016,10,06,11,04,99.00
2016,10,06,11,05,102.20
2016,10,06,11,06,106.50
2016,10,06,11,07,104.60
2016,10,06,11,08,121.10
2016,10,06,11,09,141.00
2016,10,06,11,10,158.60
2016,10,06,11,11,171.10
2016,10,06,11,12,184.00
2016,10,06,11,13,189.30
2016,10,06,11,14,188.50
2016,10,06,11,15,174.10
2016,10,06,11,16,169.20
2016,10,06,11,17,177.50
2016,10,06,11,18,177.60
2016,10,06,11,19,162.60
2016,10,06,11,20,146.70
2016,10,06,11,21,131.70
2016,10,06,11,22,131.20
2016,10,06,11,23,132.00
2016,10,06,11,24,105.50
2016,10,06,11,25,83.80
2016,10,06,11,26,82.10
2016,10,06,11,27,90.10
2016,10,06,11,28,101.70
2016,10,06,11,29,113.20
2016,10,06,11,30,125.60
2016,10,06,11,31,137.00
2016,10,06,11,32,159.00
2016,10,06,11,33,181.00
2016,10,06,11,34,181.00
2016,10,06,11,35,175.00
2016,10,06,11,36,164.50
2016,10,06,11,37,152.70
2016,10,06,11,38,145.00
2016,10,06,11,39,135.40
2016,10,06,11,40,124.60
2016,10,06,11,41,117.70
2016,10,06,11,42,118.30
2016,10,06,11,43,127.00
2016,10,06,11,44,132.20
2016,10,06,11,45,147.90
2016,10,06,11,46,170.10
2016,10,06,11,47,193.10
2016,10,06,11,48,210.40
2016,10,06,11,49,214.70
2016,10,06,11,50,214.00
2016,10,06,11,51,201.20
2016,10,06,11,52,193.80
2016,10,06,11,53,192.10
2016,10,06,11,54,188.20
2016,10,06,11,55,177.40
2016,10,06,11,56,165.70
2016,10,06,11,57,157.60
2016,10,06,11,58,157.80
2016,10,06,11,59,166.10
2016,10,06,12,00,172.00
2016,10,06,12,01,172.00
2016,10,06,12,02,171.50
2016,10,06,12,03,164.90
2016,10,06,12,04,147.60
2016,10,06,12,05,129.80
2016,10,06,12,06,116.00
2016,10,06,12,07,107.90
2016,10,06,12,08,100.70
2016,10,06,12,09,97.20
2016,10,06,12,10,97.50
2016,10,06,12,11,102.00
2016,10,06,12,12,104.40
2016,10,06,12,13,116.80
2016,10,06,12,14,127.80
2016,10,06,12,15,133.30
2016,10,06,12,16,132.00
2016,10,06,12,17,134.80
2016,10,06,12,18,149.20
2016,10,06,12,19,158.00
2016,10,06,12,20,180.40
2016,10,06,12,21,200.50
2016,10,06,12,22,204.00
2016,10,06,12,23,216.60
2016,10,06,12,24,224.60
2016,10,06,12,25,225.00
2016,10,06,12,26,226.40
2016,10,06,12,27,233.00
2016,10,06,12,28,227.20
2016,10,06,12,29,218.10
2016,10,06,12,30,206.20
2016,10,06,12,31,202.00
2016,10,06,12,32,200.50
2016,10,06,12,33,200.80
2016,10,06,12,34,202.00
2016,10,06,12,35,205.40
2016,10,06,12,36,216.90
2016,10,06,12,37,220.00
2016,10,06,12,38,241.60
2016,10,06,12,39,249.70
2016,10,06,12,40,250.80
2016,10,06,12,41,259.00
2016,10,06,12,42,265.40
2016,10,06,12,43,267.50
2016,10,06,12,44,269.00
2016,10,06,12,45,269.70
2016,10,06,12,46,272.30
2016,10,06,12,47,274.00
2016,10,06,12,48,274.00
2016,10,06,12,49,274.00
2016,10,06,12,50,259.30
2016,10,06,12,51,250.60
2016,10,06,12,52,246.80
2016,10,06,12,53,243.30
2016,10,06,12,54,239.10
2016,10,06,12,55,235.80
2016,10,06,12,56,231.70
2016,10,06,12,57,229.40
2016,10,06,12,58,226.00
2016,10,06,12,59,222.40
2016,10,06,13,00,219.90
2016,10,06,13,01,217.20
2016,10,06,13,02,214.40
2016,10,06,13,03,210.60
2016,10,06,13,04,207.70
2016,10,06,13,05,204.90
2016,10,06,13,06,201.00
2016,10,06,13,07,197.40
2016,10,06,13,08,195.20
2016,10,06,13,09,192.30
2016,10,06,13,10,189.80
2016,10,06,13,11,185.60
2016,10,06,13,12,182.00
2016,10,06,13,13,176.80
2016,10,06,13,14,171.80
2016,10,06,13,15,165.10
2016,10,06,13,16,159.40
2016,10,06,13,17,155.50
2016,10,06,13,18,155.00
2016,10,06,13,19,153.80
2016,10,06,13,20,151.60
2016,10,06,13,21,152.50
2016,10,06,13,22,153.00
2016,10,06,13,23,154.80
2016,10,06,13,24,155.00
2016,10,06,13,25,155.00
2016,10,06,13,26,155.00
2016,10,06,13,27,155.20
2016,10,06,13,28,156.00
2016,10,06,13,29,156.00
2016,10,06,13,30,156.70
2016,10,06,13,31,158.00
2016,10,06,13,32,158.00
2016,10,06,13,33,160.30
2016,10,06,13,34,162.00
2016,10,06,13,35,162.70
2016,10,06,13,36,162.20
2016,10,06,13,37,162.00
2016,10,06,13,38,162.90
2016,10,06,13,39,163.10
2016,10,06,13,40,165.00
2016,10,06,13,41,165.00
2016,10,06,13,42,165.00
2016,10,06,13,43,164.40
2016,10,06,13,44,161.90
2016,10,06,13,45,160.00
2016,10,06,13,46,157.60
2016,10,06,13,47,154.00
2016,10,06,13,48,151.80
2016,10,06,13,49,149.70
2016,10,06,13,50,146.90
2016,10,06,13,51,144.50
2016,10,06,13,52,141.60
2016,10,06,13,53,141.00
2016,10,06,13,54,134.40
2016,10,06,13,55,127.90
2016,10,06,13,56,126.40
2016,10,06,13,57,122.60
2016,10,06,13,58,120.20
2016,10,06,13,59,117.30
2016,10,06,14,00,116.00
2016,10,06,14,01,115.10
2016,10,06,14,02,114.00
2016,10,06,14,03,114.00
2016,10,06,14,04,114.00
2016,10,06,14,05,114.00
2016,10,06,14,06,114.00
2016,10,06,14,07,114.00
2016,10,06,14,08,113.10
2016,10,06,14,09,111.00
2016,10,06,14,10,108.90
2016,10,06,14,11,106.60
2016,10,06,14,12,103.60
2016,10,06,14,13,101.40
2016,10,06,14,14,100.00
2016,10,06,14,15,100.00
2016,10,06,14,16,100.00
2016,10,06,14,17,101.00
2016,10,06,14,18,103.20
2016,10,06,14,19,104.00
2016,10,06,14,20,104.70
2016,10,06,14,21,105.00
2016,10,06,14,22,104.10
2016,10,06,14,23,104.00
2016,10,06,14,24,102.10
2016,10,06,14,25,102.00
2016,10,06,14,26,101.70
2016,10,06,14,27,100.00
2016,10,06,14,28,100.00
2016,10,06,14,29,100.70
2016,10,06,14,30,102.00
2016,10,06,14,31,102.90
2016,10,06,14,32,105.50
2016,10,06,14,33,107.00
2016,10,06,14,34,111.60
2016,10,06,14,35,115.40
2016,10,06,14,36,116.00
2016,10,06,14,37,116.00
2016,10,06,14,38,116.00
2016,10,06,14,39,119.80
2016,10,06,14,40,121.00
2016,10,06,14,41,121.00
2016,10,06,14,42,120.80
2016,10,06,14,43,118.20
2016,10,06,14,44,113.00
2016,10,06,14,45,113.00
2016,10,06,14,46,113.50
2016,10,06,14,47,109.00
2016,10,06,14,48,104.00
2016,10,06,14,49,84.50
2016,10,06,14,50,72.50
2016,10,06,14,51,73.50
2016,10,06,14,52,78.00
2016,10,06,14,53,79.00
2016,10,06,14,54,79.00
2016,10,06,14,55,77.00
2016,10,06,14,56,77.00
2016,10,06,14,57,77.00
2016,10,06,14,58,77.50
2016,10,06,14,59,79.70
2016,10,06,15,00,81.70
2016,10,06,15,01,83.00
2016,10,06,15,02,83.50
2016,10,06,15,03,85.10
2016,10,06,15,04,86.00
2016,10,06,15,05,86.00
2016,10,06,15,06,86.00
2016,10,06,15,07,84.30
2016,10,06,15,08,84.00
2016,10,06,15,09,84.00
2016,10,06,15,10,76.70
2016,10,06,15,11,73.40
2016,10,06,15,12,70.00
2016,10,06,15,13,69.70
2016,10,06,15,14,69.00
2016,10,06,15,15,69.00
2016,10,06,15,16,68.10
2016,10,06,15,17,67.00
2016,10,06,15,18,65.80
2016,10,06,15,19,65.00
2016,10,06,15,20,65.00
2016,10,06,15,21,65.00
2016,10,06,15,22,59.00
2016,10,06,15,23,54.40
2016,10,06,15,24,53.00
2016,10,06,15,25,50.80
2016,10,06,15,26,48.70
2016,10,06,15,27,47.00
2016,10,06,15,28,47.60
2016,10,06,15,29,49.00
2016,10,06,15,30,49.00
2016,10,06,15,31,49.90
2016,10,06,15,32,52.10
2016,10,06,15,33,53.00
2016,10,06,15,34,53.00
2016,10,06,15,35,53.00
2016,10,06,15,36,51.40
2016,10,06,15,37,51.00
2016,10,06,15,38,51.00
2016,10,06,15,39,49.00
2016,10,06,15,40,46.90
2016,10,06,15,41,45.70
2016,10,06,15,42,43.50
2016,10,06,15,43,42.00
2016,10,06,15,44,41.30
2016,10,06,15,45,40.80
2016,10,06,15,46,42.00
2016,10,06,15,47,41.00
2016,10,06,15,48,40.00
2016,10,06,15,49,40.00
2016,10,06,15,50,40.00
2016,10,06,15,51,39.20
2016,10,06,15,52,39.00
2016,10,06,15,53,39.00
2016,10,06,15,54,40.00
2016,10,06,15,55,40.10
2016,10,06,15,56,42.30
2016,10,06,15,57,44.40
2016,10,06,15,58,46.30
2016,10,06,15,59,47.60
2016,10,06,16,00,49.00
2016,10,06,16,01,49.00
2016,10,06,16,02,48.00
2016,10,06,16,03,46.40
2016,10,06,16,04,44.70
2016,10,06,16,05,41.20
2016,10,06,16,06,39.20
2016,10,06,16,07,35.60
2016,10,06,16,08,33.20
2016,10,06,16,09,32.00
2016,10,06,16,10,30.00
2016,10,06,16,11,29.70
2016,10,06,16,12,28.00
2016,10,06,16,13,27.50
2016,10,06,16,14,25.00
2016,10,06,16,15,23.00
2016,10,06,16,16,24.00
2016,10,06,16,17,25.00
2016,10,06,16,18,25.60
2016,10,06,16,19,24.10
2016,10,06,16,20,24.40
2016,10,06,16,21,25.00
2016,10,06,16,22,25.00
2016,10,06,16,23,25.90
2016,10,06,16,24,26.00
2016,10,06,16,25,25.70
2016,10,06,16,26,32.20
2016,10,06,16,27,32.40
2016,10,06,16,28,30.00
2016,10,06,16,29,28.70
2016,10,06,16,30,25.60
2016,10,06,16,31,25.50
2016,10,06,16,32,26.00
2016,10,06,16,33,27.20
2016,10,06,16,34,28.00
2016,10,06,16,35,29.50
2016,10,06,16,36,31.60
2016,10,06,16,37,34.50
2016,10,06,16,38,30.50
2016,10,06,16,39,28.10
2016,10,06,16,40,27.50
2016,10,06,16,41,22.70
2016,10,06,16,42,21.00
2016,10,06,16,43,21.00
2016,10,06,16,44,21.00
2016,10,06,16,45,18.80
2016,10,06,16,46,16.00
2016,10,06,16,47,16.00
2016,10,06,16,48,13.70
2016,10,06,16,49,12.00
2016,10,06,16,50,12.00
2016,10,06,16,51,12.00
2016,10,06,16,52,11.10
2016,10,06,16,53,9.20
2016,10,06,16,54,11.00
2016,10,06,16,55,11.00
2016,10,06,16,56,11.00
2016,10,06,16,57,11.20
2016,10,06,16,58,12.00
2016,10,06,16,59,12.70
2016,10,06,17,00,14.90
2016,10,06,17,01,16.00
2016,10,06,17,02,14.90
2016,10,06,17,03,12.80
2016,10,06,17,04,13.30
2016,10,06,17,05,14.00
2016,10,06,17,06,14.00
2016,10,06,17,07,15.60
2016,10,06,17,08,17.80
2016,10,06,17,09,14.30
2016,10,06,17,10,15.60
2016,10,06,17,11,12.00
2016,10,06,17,12,12.00
2016,10,06,17,13,11.70
2016,10,06,17,14,11.40
2016,10,06,17,15,12.00
2016,10,06,17,16,10.60
2016,10,06,17,17,9.00
2016,10,06,17,18,7.80
2016,10,06,17,19,5.70
2016,10,06,17,20,5.00
2016,10,06,17,21,5.00
2016,10,06,17,22,5.00
2016,10,06,17,23,6.80
2016,10,06,17,24,5.00
2016,10,06,17,25,5.00
2016,10,06,17,26,5.00
2016,10,06,17,27,5.00
2016,10,06,17,28,5.00
2016,10,06,17,29,3.20
2016,10,06,17,30,0.00